Location: Biltmore Gardens
(41.6070°N, 83.4666°W)
Time: 08:29:20
(UTC+00:00)

Cosmos 2344 - Pass Details

Date: 28 October 2020
Orbit: 1246 x 2997 km, 63.3° (Epoch: 03 December)

Event Time Altitude Azimuth Distance (km) Brightness Sun altitude
Exits shadow 09:07:42 53° 343° (NNW) 1,517 3.8 -32.9°
Drops below altitude 10° 09:14:28 10° 31° (NNE) 3,458 6.3 -31.7°
Sets 09:17:39 0° 36° (NE) 4,587 7.1 -31.1°
